Weather History for Yankton, SD

Change the Weather History Date:

Wednesday, July 24, 2013

  Actual Average Record
Temperature  
Mean Temperature 68 °F -  
Max Temperature 82 °F 86 °F 102 °F (1964)
Min Temperature 55 °F 62 °F 52 °F (1954)
Cooling Degree Days 4    
Growing Degree Days 18 (Base 50)    
Moisture  
Dew Point 58 °F    
Average Humidity 70    
Maximum Humidity 94    
Minimum Humidity 45    
Precipitation  
Precipitation 0.00 in - - ()
Sea Level Pressure  
Sea Level Pressure 30.06 in    
Wind  
Wind Speed 2 mph (North)    
Max Wind Speed 8 mph    
Max Gust Speed -    
Visibility 10 miles    
Events      
Averages and records for this station are not official NWS values.
T = Trace of Precipitation, MM = Missing Value Source: NWS Daily Summary

Daily Weather History Graph

Daily Weather History Graph

Search for Another Location

Airport:

Trip Planner

Search our weather history database for the weather conditions in past years. The results will help you decide how hot, cold, wet, or windy it might be!

Date:

Astronomy

Jul. 24, 2013 Rise Set
Actual Time 6:12 AM CDT 8:58 PM CDT
Civil Twilight 5:39 AM CDT 9:31 PM CDT
Nautical Twilight 4:58 AM CDT 10:13 PM CDT
Astronomical Twilight 4:09 AM CDT 11:00 PM CDT
Moon 9:59 PM CDT (7/24) 8:39 AM CDT (7/24)
Length of Visible Light 15h 51m
Length of Day
14h 45m
Waning Gibbous, 94% of the Moon is Illuminated
Jul 24
Waning Gibbous
Jul 29
Last Quarter
Aug 6
New
Aug 14
First Quarter
Aug 20
Full

Hourly Weather History & Observations

Time (CDT) Temp. Heat Index Dew Point Humidity Pressure Visibility Wind Dir Wind Speed Gust Speed Precip Events Conditions
12:15 AM 62.6 °F - 55.4 °F 77% 30.05 in 10.0 mi NNE 5.8 mph - N/A   Clear
12:35 AM 62.6 °F - 55.4 °F 77% 30.05 in 10.0 mi NNE 4.6 mph - N/A   Clear
12:55 AM 62.6 °F - 55.4 °F 77% 30.04 in 10.0 mi Calm Calm - N/A   Clear
1:15 AM 62.6 °F - 55.4 °F 77% 30.05 in 10.0 mi Calm Calm - N/A   Clear
1:35 AM 62.6 °F - 55.4 °F 77% 30.05 in 10.0 mi Calm Calm - N/A   Clear
1:55 AM 60.8 °F - 55.4 °F 82% 30.05 in 10.0 mi Calm Calm - N/A   Clear
2:15 AM 60.8 °F - 55.4 °F 82% 30.06 in 10.0 mi Calm Calm - N/A   Clear
2:35 AM 57.2 °F - 55.4 °F 94% 30.06 in 10.0 mi Calm Calm - N/A   Clear
2:55 AM 57.2 °F - 53.6 °F 88% 30.06 in 10.0 mi Calm Calm - N/A   Clear
3:15 AM 57.2 °F - 53.6 °F 88% 30.06 in 10.0 mi Calm Calm - N/A   Clear
3:35 AM 59.0 °F - 53.6 °F 82% 30.06 in 10.0 mi Calm Calm - N/A   Clear
3:55 AM 57.2 °F - 53.6 °F 88% 30.07 in 10.0 mi Calm Calm - N/A   Clear
4:15 AM 55.4 °F - 53.6 °F 94% 30.06 in 10.0 mi Calm Calm - N/A   Clear
4:35 AM 55.4 °F - 53.6 °F 94% 30.06 in 10.0 mi Calm Calm - N/A   Clear
4:55 AM 55.4 °F - 53.6 °F 94% 30.07 in 10.0 mi NNW 4.6 mph - N/A   Clear
5:15 AM 55.4 °F - 53.6 °F 94% 30.08 in 10.0 mi Calm Calm - N/A   Clear
5:35 AM 57.2 °F - 53.6 °F 88% 30.07 in 10.0 mi Calm Calm - N/A   Clear
5:55 AM 55.4 °F - 53.6 °F 94% 30.08 in 10.0 mi NNW 3.5 mph - N/A   Clear
6:15 AM 57.2 °F - 53.6 °F 88% 30.08 in 10.0 mi Calm Calm - N/A   Clear
6:35 AM 57.2 °F - 53.6 °F 88% 30.09 in 10.0 mi West 3.5 mph - N/A   Clear
6:55 AM 57.2 °F - 53.6 °F 88% 30.10 in 10.0 mi Calm Calm - N/A   Clear
7:15 AM 57.2 °F - 55.4 °F 94% 30.09 in 10.0 mi Calm Calm - N/A   Clear
7:35 AM 60.8 °F - 57.2 °F 88% 30.09 in 10.0 mi Calm Calm - N/A   Clear
7:55 AM 62.6 °F - 57.2 °F 82% 30.08 in 9.0 mi Calm Calm - N/A   Clear
8:15 AM 64.4 °F - 57.2 °F 77% 30.10 in 10.0 mi Calm Calm - N/A   Clear
8:35 AM 66.2 °F - 59.0 °F 78% 30.10 in 10.0 mi WSW 3.5 mph - N/A   Clear
8:55 AM 66.2 °F - 59.0 °F 78% 30.10 in 10.0 mi Calm Calm - N/A   Clear
9:15 AM 69.8 °F - 59.0 °F 68% 30.10 in 10.0 mi Calm Calm - N/A   Clear
9:35 AM 69.8 °F - 59.0 °F 68% 30.10 in 10.0 mi Calm Calm - N/A   Clear
9:55 AM 71.6 °F - 59.0 °F 64% 30.10 in 10.0 mi SW 4.6 mph - N/A   Clear
10:15 AM 71.6 °F - 59.0 °F 64% 30.10 in 10.0 mi Calm Calm - N/A   Clear
10:35 AM 73.4 °F - 59.0 °F 61% 30.10 in 10.0 mi WNW 3.5 mph - N/A   Clear
10:55 AM 73.4 °F - 57.2 °F 57% 30.09 in 10.0 mi Calm Calm - N/A   Clear
11:15 AM 75.2 °F - 59.0 °F 57% 30.09 in 10.0 mi North 3.5 mph - N/A   Clear
11:35 AM 75.2 °F - 60.8 °F 61% 30.09 in 10.0 mi WNW 3.5 mph - N/A   Clear
11:55 AM 75.2 °F - 60.8 °F 61% 30.09 in 10.0 mi West 5.8 mph - N/A   Unknown
12:15 PM 75.2 °F - 59.0 °F 57% 30.09 in 10.0 mi WNW 5.8 mph - N/A   Unknown
12:35 PM 77.0 °F - 57.2 °F 50% 30.08 in 10.0 mi ENE 4.6 mph - N/A   Clear
12:55 PM 77.0 °F - 59.0 °F 54% 30.08 in 10.0 mi NW 5.8 mph - N/A   Clear
1:15 PM 78.8 °F - 60.8 °F 54% 30.08 in 10.0 mi WSW 8.1 mph - N/A   Clear
1:35 PM 78.8 °F - 60.8 °F 54% 30.07 in 10.0 mi West 4.6 mph - N/A   Clear
1:55 PM 78.8 °F - 59.0 °F 51% 30.07 in 10.0 mi South 4.6 mph - N/A   Scattered Clouds
2:15 PM 78.8 °F - 59.0 °F 51% 30.06 in 10.0 mi NNW 4.6 mph - N/A   Partly Cloudy
2:35 PM 80.6 °F 81.5 °F 60.8 °F 51% 30.05 in 10.0 mi SW 5.8 mph - N/A   Clear
2:55 PM 80.6 °F 81.1 °F 59.0 °F 48% 30.05 in 10.0 mi Calm Calm - N/A   Partly Cloudy
3:15 PM 80.6 °F 81.1 °F 59.0 °F 48% 30.05 in 10.0 mi Calm Calm - N/A   Partly Cloudy
3:35 PM 80.6 °F 81.5 °F 60.8 °F 51% 30.04 in 10.0 mi SSW 6.9 mph - N/A   Partly Cloudy
3:55 PM 82.4 °F 82.9 °F 60.8 °F 48% 30.03 in 10.0 mi North 4.6 mph - N/A   Scattered Clouds
4:15 PM - - - N/A% 30.02 in 10.0 mi North 3.5 mph - N/A   Unknown
4:35 PM - - - N/A% - 10.0 mi North - - N/A   Clear
4:55 PM 82.4 °F 82.9 °F 60.8 °F 48% 30.01 in 10.0 mi Calm Calm - N/A   Clear
5:15 PM 82.4 °F 82.5 °F 59.0 °F 45% 30.00 in 10.0 mi Calm Calm - N/A   Clear
5:35 PM 82.4 °F 82.9 °F 60.8 °F 48% 30.00 in 10.0 mi East 3.5 mph - N/A   Clear
5:55 PM 82.4 °F 82.9 °F 60.8 °F 48% 30.00 in 10.0 mi Calm Calm - N/A   Partly Cloudy
6:15 PM 82.4 °F 82.9 °F 60.8 °F 48% 30.00 in 10.0 mi Calm Calm - N/A   Partly Cloudy
6:35 PM 82.4 °F 82.9 °F 60.8 °F 48% 30.00 in 10.0 mi ESE 5.8 mph - N/A   Partly Cloudy
6:55 PM 82.4 °F 82.9 °F 60.8 °F 48% 30.00 in 10.0 mi SE 8.1 mph - N/A   Mostly Cloudy
7:15 PM - - - N/A% - - North - - N/A   Unknown
7:35 PM - - - N/A% - 10.0 mi North - - N/A   Unknown
8:15 PM - - - N/A% - - North - - N/A   Unknown
8:35 PM - - - N/A% 29.99 in - East 4.6 mph - N/A   Unknown
8:55 PM - - - N/A% - 10.0 mi North - - N/A   Unknown
9:15 PM 75.2 °F - 62.6 °F 65% 30.00 in 10.0 mi East 4.6 mph - N/A   Partly Cloudy
9:35 PM 73.4 °F - 62.6 °F 69% 30.00 in 10.0 mi ENE 5.8 mph - N/A   Clear
9:55 PM - - - N/A% 30.00 in 10.0 mi North - - N/A   Unknown
10:15 PM 71.6 °F - 62.6 °F 73% 30.01 in 10.0 mi ENE 6.9 mph - N/A   Clear
10:35 PM 71.6 °F - 62.6 °F 73% 30.02 in 10.0 mi SE 4.6 mph - N/A   Clear
10:55 PM 69.8 °F - 62.6 °F 78% 30.03 in 10.0 mi East 3.5 mph - N/A   Clear
11:15 PM 69.8 °F - 62.6 °F 78% 30.03 in 10.0 mi East 3.5 mph - N/A   Clear
11:35 PM 69.8 °F - 62.6 °F 78% 30.03 in 10.0 mi SSE 4.6 mph - N/A   Clear
11:55 PM 71.6 °F - 60.8 °F 69% 30.02 in 10.0 mi SSE 5.8 mph - N/A   Clear